Flag for France Weather past 2 weeks in Aix-en-Provence, France

Now
77 °F

Scattered clouds.


Feels Like: 79 °F
Forecast: 55 / 77 °F
Wind: 6 mph from Southwest

Location: Marseille / Marignane

Current Time: Oct 1, 2014 at 4:43:22 PM

Latest Report: Oct 1, 2014 at 4:00 PM


Visibility: N/A

Pressure: 30.15 "Hg

Humidity: 61%

Dew point: 63 °F

Location of Aix-en-ProvenceLocation

Historic Weather in Aix-en-Provence — Graph

°F

Aix-en-Provence temperature yesterday

Maximum temperature yesterday: 72 °F (at 12:00 AM)
Minimum temperature yesterday: 64 °F (at 4:30 AM)
Average temperature yesterday: 68 °F

Past Weeks' High & Low Weather Summary

 TemperatureHumidityPressure
High86 °F (Sep 18, 3:00 PM)94% (Sep 20, 10:00 PM)30.27 "Hg (Sep 20, 10:00 PM)
Low52 °F (Sep 26, 5:30 AM)32% (Sep 28, 4:00 PM)29.80 "Hg (Sep 17, 10:00 AM)
Average70 °F68%30.04 "Hg
* Reported Sep 16 3:00 PM — Oct 1 3:46 PM, Aix-en-Provence, Weather by CustomWeather, © 2014

Note: Actual official high and low records may vary slightly from our data, if they occured in-between our weather recording intervals... More about our weather records

Advertising

Aix-en-Provence weather history for previous 24 hours

 ConditionsComfort  
Time TempWeatherWind HumidityBarometerVisibility
3:46 PM
Oct 1
79 °FScattered clouds.5 mph54%30.15 "HgN/A
3:00 PM77 °FScattered clouds.5 mph61%30.18 "HgN/A
2:30 PM75 °FScattered clouds.6 mph65%30.18 "HgN/A
2:00 PM75 °FPassing clouds.6 mph65%30.18 "HgN/A
1:30 PM73 °FPassing clouds.5 mph69%30.21 "HgN/A
1:00 PM72 °FPassing clouds.7 mph69%30.21 "HgN/A
12:30 PM70 °FPassing clouds.8 mph78%30.21 "HgN/A
12:00 PM70 °FScattered clouds.10 mph78%30.24 "HgN/A
11:30 AM68 °FPartly sunny.7 mph83%30.24 "HgN/A
11:00 AM66 °FPartly sunny.7 mph88%30.24 "HgN/A
10:30 AM66 °FPartly sunny.7 mph83%30.24 "HgN/A
10:00 AM66 °FScattered clouds.9 mph88%30.24 "HgN/A
9:30 AM66 °FScattered clouds.5 mph83%30.24 "HgN/A
9:00 AM64 °FScattered clouds.No wind94%30.21 "HgN/A
8:30 AM63 °FClear.2 mph88%30.21 "Hg10 mi
8:00 AM63 °FClear.5 mph94%30.21 "Hg10 mi
7:30 AM63 °FPassing clouds.5 mph88%30.21 "HgN/A
7:00 AM64 °FPassing clouds.No wind88%30.21 "HgN/A
6:30 AM64 °FPassing clouds.No wind88%30.21 "HgN/A
6:00 AM64 °FPartly cloudy.3 mph88%30.21 "HgN/A
5:30 AM64 °FPartly cloudy.2 mph83%30.21 "HgN/A
4:30 AM64 °FPartly cloudy.3 mph88%30.21 "HgN/A
4:00 AM64 °FClear.8 mph88%30.21 "HgN/A
3:30 AM64 °FClear.7 mph88%30.21 "HgN/A
3:00 AM64 °FMild.6 mph88%30.21 "HgN/A
2:30 AM64 °FPassing clouds.8 mph88%30.24 "HgN/A
2:00 AM64 °FLight rain. Partly cloudy.No wind94%30.21 "Hg5 mi
1:30 AM64 °FRain. Fog.5 mph88%30.24 "Hg1 mi
1:00 AM64 °FHeavy rain. Fog.6 mph88%30.24 "Hg1 mi
12:30 AM64 °FHeavy rain. Fog.3 mph94%30.24 "Hg2 mi
12:00 AM64 °FScattered showers. Partly cloudy.3 mph94%30.24 "HgN/A
11:30 PM
Sep 30
64 °FLight rain. Passing clouds.6 mph94%30.24 "Hg4 mi
10:30 PM66 °FScattered showers. Passing clouds.6 mph88%30.24 "HgN/A
10:00 PM66 °FPassing clouds.3 mph88%30.24 "HgN/A
9:30 PM66 °FLight rain. Mostly cloudy.7 mph88%30.24 "Hg5 mi
9:00 PM66 °FOvercast.5 mph88%30.24 "HgN/A
8:30 PM66 °FLight rain. Passing clouds.8 mph88%30.21 "Hg5 mi
8:00 PM66 °FRain. Fog.7 mph88%30.21 "Hg2 mi
7:30 PM66 °FHeavy rain. Fog.3 mph88%30.21 "Hg3 mi
7:00 PM68 °FLight rain. Broken clouds.8 mph83%30.21 "HgN/A
6:30 PM68 °FLight rain. Broken clouds.12 mph83%30.21 "HgN/A
6:00 PM68 °FLight rain. Broken clouds.9 mph83%30.21 "HgN/A
5:30 PM70 °FPartly sunny.8 mph78%30.21 "HgN/A
5:00 PM70 °FLight rain. Partly sunny.9 mph78%30.21 "HgN/A
4:30 PM68 °FLight rain. Partly sunny.13 mph83%30.21 "HgN/A
4:00 PM70 °FLight rain. Partly sunny.15 mph78%30.21 "HgN/A
Weather by CustomWeather, © 2014

See weather overviewHow to use our weather pages